Weather History for Pecs, Hungary

Change the Weather History Date:

Sunday, March 31, 2013

  Actual Average Record
Temperature  
Mean Temperature 41 °F -  
Max Temperature 47 °F 61 °F - ()
Min Temperature 35 °F 43 °F - ()
Degree Days  
Heating Degree Days 24    
Moisture  
Dew Point 39 °F    
Average Humidity 89    
Maximum Humidity 100    
Minimum Humidity 70    
Precipitation  
Precipitation 0.12 in 0.07 in - ()
Sea Level Pressure  
Sea Level Pressure 29.50 in    
Wind  
Wind Speed 8 mph ()    
Max Wind Speed 18 mph    
Max Gust Speed 28 mph    
Visibility 4.4 miles    
Events Rain    
T = Trace of Precipitation, MM = Missing Value Source: Averaged Metar Reports

Daily Weather History Graph

Daily Weather History Graph

Search for Another Location

Airport:

Trip Planner

Search our weather history database for the weather conditions in past years. The results will help you decide how hot, cold, wet, or windy it might be!

Date:

Astronomy

Mar. 31, 2013 Rise Set
Actual Time 6:28 AM CEST 7:14 PM CEST
Civil Twilight 5:58 AM CEST 7:44 PM CEST
Nautical Twilight 5:22 AM CEST 8:20 PM CEST
Astronomical Twilight 4:45 AM CEST 8:58 PM CEST
Moon No Moon Rise 8:46 AM CEST (3/31)
Length of Visible Light 13h 45m
Length of Day
12h 45m
Waning Gibbous, 80% of the Moon is Illuminated
Mar 31
Waning Gibbous
Apr 3
Last Quarter
Apr 10
New
Apr 18
First Quarter
Apr 25
Full

Hourly Weather History & Observations

Time (CEST) Temp. Windchill Dew Point Humidity Pressure Visibility Wind Dir Wind Speed Gust Speed Precip Events Conditions
12:45 AM 48.2 °F - 46.4 °F 93% 29.47 in 1.2 mi East 9.2 mph - N/A   Overcast
1:00 AM 48 °F - 47 °F 95% 29.48 in 1 mi East 8.9 mph - -   Mist
1:45 AM 46.4 °F 42.4 °F 46.4 °F 100% 29.44 in 1.2 mi East 8.1 mph - N/A   Overcast
3:08 AM 46.4 °F 42.9 °F 44.6 °F 93% 29.44 in - East 6.9 mph - N/A   Unknown
3:12 AM 46.4 °F 42.9 °F 46.4 °F 100% 29.44 in 1.2 mi East 6.9 mph - N/A Rain Light Rain
3:45 AM 46.4 °F 42.4 °F 44.6 °F 93% 29.42 in 1.2 mi East 8.1 mph - N/A Rain Light Rain
4:45 AM 44.6 °F 39.7 °F 44.6 °F 100% 29.39 in 1.2 mi East 9.2 mph - N/A Rain Light Rain
5:45 AM 44.6 °F 40.2 °F 44.6 °F 100% 29.39 in 1.6 mi East 8.1 mph - N/A   Mostly Cloudy
6:15 AM 44.6 °F 40.7 °F 42.8 °F 93% 29.39 in 1.0 mi East 6.9 mph - N/A   Mostly Cloudy
6:45 AM 42.8 °F - 42.8 °F 100% 29.36 in 1.0 mi East 2.3 mph - N/A   Mostly Cloudy
7:07 AM - - - N/A% - 0.9 mi Variable 3.5 mph - N/A   Mostly Cloudy
7:15 AM 42.8 °F - 42.8 °F 100% 29.39 in 1.0 mi Calm Calm - N/A   Mostly Cloudy
7:45 AM 44.6 °F 42.2 °F 44.6 °F 100% 29.39 in 1.1 mi NW 4.6 mph - N/A   Mostly Cloudy
8:00 AM 45 °F - 44 °F 94% 29.39 in 1 mi NW 4.5 mph - -   Mist
8:03 AM 44.6 °F 43.1 °F 44.6 °F 100% 29.39 in 1.9 mi NW 3.5 mph - N/A   Mostly Cloudy
8:15 AM 46.4 °F 45.2 °F 44.6 °F 93% 29.39 in 2.5 mi NNW 3.5 mph - N/A   Mostly Cloudy
8:45 AM 46.4 °F - 44.6 °F 93% 29.39 in 2.5 mi NW 2.3 mph - N/A Rain Light Rain
9:15 AM 46.4 °F 43.5 °F 46.4 °F 100% 29.39 in 2.5 mi NW 5.8 mph - N/A   Mostly Cloudy
9:45 AM 46.4 °F 44.3 °F 44.6 °F 93% 29.39 in 2.5 mi NW 4.6 mph - N/A Rain Light Rain
10:00 AM - - - N/A% - 6.2 mi NW 8.1 mph - N/A   Overcast
10:15 AM 46.4 °F 44.3 °F 44.6 °F 93% 29.42 in 2.5 mi NW 4.6 mph - N/A Rain Light Rain
10:45 AM 44.6 °F 40.7 °F 42.8 °F 93% 29.42 in 2.5 mi WSW 6.9 mph - N/A Rain Light Rain
11:03 AM 42.8 °F 36.2 °F 41.0 °F 93% 29.44 in 3.1 mi West 12.7 mph - N/A   Overcast
11:15 AM 42.8 °F 35.8 °F 41.0 °F 93% 29.42 in 3.7 mi West 13.8 mph - N/A   Overcast
11:45 AM 42.8 °F 36.2 °F 41.0 °F 93% 29.42 in 6.2 mi NW 12.7 mph - N/A   Overcast
12:15 PM 46.4 °F 41.1 °F 42.8 °F 87% 29.42 in 6.2 mi NNE 11.5 mph - N/A   Mostly Cloudy
12:45 PM 46.4 °F 45.2 °F 42.8 °F 87% 29.44 in 6.2 mi West 3.5 mph - N/A   Scattered Clouds
12:58 PM 42.8 °F 35.8 °F 41.0 °F 93% 29.47 in - West 13.8 mph 27.6 mph N/A   Unknown
1:00 PM - - - N/A% - 6.2 mi NW 13.8 mph 27.6 mph N/A   Mostly Cloudy
1:15 PM 41.0 °F 33.5 °F 39.2 °F 93% 29.47 in 6.2 mi West 13.8 mph - N/A   Mostly Cloudy
1:45 PM 41.0 °F 32.5 °F 37.4 °F 87% 29.47 in 6.2 mi WNW 17.3 mph - N/A   Mostly Cloudy
2:00 PM 40 °F - 37 °F 87% 29.49 in 16 mi WNW 15.7 mph - -   Partly Cloudy
2:15 PM 41.0 °F 35.8 °F 37.4 °F 87% 29.50 in 6.2 mi West 8.1 mph - N/A   Mostly Cloudy
2:45 PM 42.8 °F 36.6 °F 39.2 °F 87% 29.50 in 6.2 mi West 11.5 mph - N/A   Mostly Cloudy
3:15 PM 41.0 °F 32.5 °F 37.4 °F 87% 29.50 in 6.2 mi WNW 17.3 mph - N/A   Mostly Cloudy
3:45 PM 41.0 °F 32.5 °F 35.6 °F 81% 29.50 in 6.2 mi WNW 17.3 mph - N/A   Mostly Cloudy
4:00 PM - - - N/A% - 6.2 mi WNW 17.3 mph - N/A   Mostly Cloudy
4:15 PM 39.2 °F 30.2 °F 35.6 °F 87% 29.53 in 6.2 mi WNW 17.3 mph - N/A   Mostly Cloudy
4:26 PM 39.2 °F 29.8 °F 33.8 °F 81% 29.53 in - WNW 18.4 mph - N/A   Unknown
4:45 PM 39.2 °F 30.5 °F 35.6 °F 87% 29.53 in 6.2 mi NW 16.1 mph - N/A   Mostly Cloudy
5:15 PM 37.4 °F 29.8 °F 33.8 °F 87% 29.56 in 6.2 mi NW 11.5 mph - N/A   Mostly Cloudy
5:45 PM 37.4 °F 29.3 °F 32.0 °F 81% 29.56 in 6.2 mi NW 12.7 mph - N/A   Scattered Clouds
6:15 PM 37.4 °F 30.8 °F 32.0 °F 81% 29.59 in 6.2 mi NW 9.2 mph - N/A   Mostly Cloudy
6:45 PM 37.4 °F 28.9 °F 32.0 °F 81% 29.59 in 6.2 mi NW 13.8 mph - N/A   Mostly Cloudy
7:15 PM 35.6 °F 27.5 °F 30.2 °F 81% 29.62 in 6.2 mi NW 11.5 mph - N/A   Mostly Cloudy
7:45 PM 35.6 °F 29.9 °F 32.0 °F 87% 29.62 in 6.2 mi NNW 6.9 mph - N/A   Mostly Cloudy
8:00 PM 36 °F - 31 °F 76% 29.67 in 6 mi NNW 6.7 mph - -   Partly Cloudy
8:15 PM 35.6 °F 29.2 °F 30.2 °F 81% 29.65 in 6.2 mi NW 8.1 mph - N/A   Mostly Cloudy
8:45 PM 35.6 °F 28.6 °F 30.2 °F 81% 29.68 in 6.2 mi NNW 9.2 mph - N/A   Mostly Cloudy
9:15 PM 35.6 °F 28.0 °F 28.4 °F 75% 29.68 in 6.2 mi NW 10.4 mph - N/A   Scattered Clouds
9:45 PM 35.6 °F 27.5 °F 28.4 °F 75% 29.68 in 6.2 mi NNW 11.5 mph - N/A   Scattered Clouds
10:45 PM 35.6 °F 27.1 °F 28.4 °F 75% 29.71 in 6.2 mi NNW 12.7 mph - N/A   Scattered Clouds
11:45 PM 35.6 °F 29.2 °F 26.6 °F 70% 29.71 in 6.2 mi NW 8.1 mph - N/A   Mostly Cloudy
12:45 AM 35.6 °F 30.7 °F 26.6 °F 70% 29.74 in - NNW 5.8 mph - N/A   Clear